Tracking 18852 objects as of 24-Nov-2017
HD Live streaming from Space Station
objects crossing your sky now

FENGYUN 1C DEB

Track FENGYUN 1C DEB now!
10-day predictions


NORAD ID: 31000
Int'l Code: 1999-025BCS
Perigee: 761.1 km
Apogee: 1,017.1 km
Inclination: 97.6 °
Period: 102.6 minutes
Semi major axis: 7260 km
RCS: 0.0095 m2 (small)
Launch date: May 10, 1999
Source: People's Republic of China (PRC)
Launch site: Taiyaun Space Center, China (TSC)

Note: This is SATELLITE DEBRIS
aabbcc
Your satellite tracking list
Your tracking list is empty




NASA's NSSDC Master Catalog

Two Line Element Set (TLE):
1 31000U 99025BCS 17327.75974220  .00000508  00000-0  30234-3 0  9993
2 31000  97.6088  71.5094 0176325 313.0915 202.8327 14.03429387547333
Source of the keplerian elements: AFSPC